When you browse on this site, cookies collect data to enhance your experience and personalize the content and advertising you see.
Visit our Privacy Policy to learn more. By continuing to use the site, you agree to this use of cookies and data.
  • In Romania
  • List of Countries
  • For 7 days
  • Water Temperature
  • Weather Map
  • Weather Widgets
  • user-avatar
    Login

    Hourly Weather Araruna

    Today, 22 January, Wednesday

    Time Temperature Precipitation Wind Pressure Humidity
    00:00 +25°C° 0 mm 2 mps 716 mmHg 85%
    01:00 +25°C° 0 mm 1 mps 716 mmHg 87%
    02:00 +24°C° 0 mm 1 mps 715 mmHg 89%
    03:00 +24°C° 0 mm 1 mps 715 mmHg 90%
    04:00 +22°C° 0 mm 0 mps 714 mmHg 92%
    05:00 +22°C° 0 mm 0 mps 715 mmHg 91%
    06:00 +22°C° 0 mm 0 mps 715 mmHg 89%
    07:00 +22°C° 0 mm 0 mps 715 mmHg 88%
    08:00 +26°C° 0 mm 1 mps 716 mmHg 76%
    09:00 +28°C° 0 mm 2 mps 716 mmHg 64%
    10:00 +31°C° 0 mm 2 mps 717 mmHg 52%
    11:00 +33°C° 0.1 mm 3 mps 716 mmHg 48%
    12:00 +34°C° 0.1 mm 3 mps 716 mmHg 43%
    13:00 +35°C° 0.1 mm 4 mps 716 mmHg 39%
    14:00 +35°C° 0.6 mm 4 mps 715 mmHg 42%
    15:00 +34°C° 0.6 mm 4 mps 714 mmHg 46%
    16:00 +33°C° 0.6 mm 5 mps 714 mmHg 50%
    17:00 +32°C° 0.1 mm 5 mps 714 mmHg 57%
    18:00 +29°C° 0.1 mm 5 mps 714 mmHg 63%
    19:00 +27°C° 0.1 mm 5 mps 714 mmHg 70%
    20:00 +27°C° 0 mm 4 mps 714 mmHg 75%
    21:00 +26°C° 0 mm 4 mps 715 mmHg 80%
    22:00 +25°C° 0 mm 3 mps 715 mmHg 84%
    23:00 +25°C° 0 mm 3 mps 715 mmHg 86%

    Tomorrow, 23 January, Thursday

    Time Temperature Precipitation Wind Pressure Humidity
    00:00 +25°C° 0 mm 2 mps 715 mmHg 88%
    01:00 +24°C° 0 mm 2 mps 715 mmHg 90%
    02:00 +24°C° 0.1 mm 1 mps 715 mmHg 90%
    03:00 +24°C° 0.1 mm 1 mps 715 mmHg 91%
    04:00 +24°C° 0.1 mm 1 mps 714 mmHg 92%
    05:00 +24°C° 0.1 mm 1 mps 714 mmHg 91%
    06:00 +24°C° 0.1 mm 1 mps 715 mmHg 91%
    07:00 +24°C° 0.1 mm 2 mps 715 mmHg 90%
    08:00 +26°C° 0 mm 2 mps 715 mmHg 80%
    09:00 +28°C° 0 mm 3 mps 716 mmHg 70%
    10:00 +30°C° 0 mm 4 mps 717 mmHg 60%
    11:00 +32°C° 0.1 mm 4 mps 716 mmHg 56%
    12:00 +33°C° 0.1 mm 4 mps 716 mmHg 51%
    13:00 +34°C° 0.1 mm 4 mps 716 mmHg 46%
    14:00 +34°C° 0 mm 5 mps 715 mmHg 45%
    15:00 +34°C° 0 mm 5 mps 715 mmHg 43%
    16:00 +34°C° 0 mm 6 mps 714 mmHg 41%
    17:00 +32°C° 0 mm 6 mps 714 mmHg 49%
    18:00 +29°C° 0 mm 5 mps 714 mmHg 58%
    19:00 +28°C° 0 mm 5 mps 714 mmHg 66%
    20:00 +27°C° 0 mm 4 mps 715 mmHg 70%
    21:00 +26°C° 0 mm 4 mps 715 mmHg 75%
    22:00 +25°C° 0 mm 3 mps 715 mmHg 79%
    23:00 +25°C° 0 mm 3 mps 715 mmHg 83%

    Day after tomorrow, 24 January, Friday

    Time Temperature Precipitation Wind Pressure Humidity
    00:00 +25°C° 0 mm 2 mps 715 mmHg 86%
    01:00 +24°C° 0 mm 2 mps 715 mmHg 89%
    02:00 +24°C° 0.1 mm 2 mps 715 mmHg 89%
    03:00 +24°C° 0.1 mm 1 mps 714 mmHg 89%
    04:00 +24°C° 0.1 mm 1 mps 714 mmHg 89%
    05:00 +24°C° 0.1 mm 1 mps 714 mmHg 90%
    06:00 +24°C° 0.1 mm 2 mps 715 mmHg 91%
    07:00 +24°C° 0.1 mm 2 mps 715 mmHg 91%
    08:00 +26°C° 0.1 mm 3 mps 716 mmHg 82%
    09:00 +28°C° 0.1 mm 3 mps 716 mmHg 74%
    10:00 +29°C° 0.1 mm 4 mps 716 mmHg 65%
    11:00 +30°C° 0.2 mm 4 mps 716 mmHg 58%
    12:00 +33°C° 0.2 mm 5 mps 716 mmHg 51%
    13:00 +34°C° 0.2 mm 5 mps 716 mmHg 44%
    14:00 +34°C° 0 mm 5 mps 716 mmHg 41%
    15:00 +34°C° 0 mm 6 mps 715 mmHg 39%
    16:00 +34°C° 0 mm 6 mps 715 mmHg 37%
    17:00 +33°C° 0 mm 5 mps 715 mmHg 44%
    18:00 +30°C° 0 mm 5 mps 715 mmHg 52%
    19:00 +28°C° 0 mm 4 mps 715 mmHg 59%
    20:00 +27°C° 0 mm 4 mps 716 mmHg 67%
    21:00 +26°C° 0 mm 3 mps 716 mmHg 75%
    22:00 +25°C° 0 mm 3 mps 716 mmHg 83%
    23:00 +25°C° 0.1 mm 2 mps 716 mmHg 85%

    25 January, Saturday

    Time Temperature Precipitation Wind Pressure Humidity
    00:00 +25°C° 0.1 mm 2 mps 716 mmHg 87%
    01:00 +25°C° 0.1 mm 2 mps 716 mmHg 90%
    02:00 +24°C° 0.2 mm 2 mps 716 mmHg 90%
    03:00 +24°C° 0.2 mm 2 mps 715 mmHg 90%
    04:00 +24°C° 0.2 mm 2 mps 715 mmHg 91%
    05:00 +24°C° 0 mm 2 mps 715 mmHg 91%
    06:00 +24°C° 0 mm 2 mps 716 mmHg 91%
    07:00 +24°C° 0 mm 2 mps 716 mmHg 91%
    08:00 +26°C° 0 mm 3 mps 716 mmHg 80%
    09:00 +28°C° 0 mm 3 mps 717 mmHg 69%
    10:00 +30°C° 0 mm 4 mps 717 mmHg 59%
    11:00 +30°C° 0.1 mm 4 mps 717 mmHg 56%
    12:00 +32°C° 0.1 mm 4 mps 717 mmHg 53%
    13:00 +33°C° 0.1 mm 4 mps 716 mmHg 50%
    14:00 +33°C° 0.2 mm 5 mps 716 mmHg 50%
    15:00 +33°C° 0.2 mm 5 mps 716 mmHg 49%
    16:00 +33°C° 0.2 mm 6 mps 715 mmHg 48%
    17:00 +32°C° 0 mm 5 mps 715 mmHg 54%
    18:00 +29°C° 0 mm 5 mps 716 mmHg 60%
    19:00 +28°C° 0 mm 5 mps 716 mmHg 65%
    20:00 +27°C° 0 mm 4 mps 716 mmHg 71%
    21:00 +26°C° 0 mm 3 mps 717 mmHg 77%
    22:00 +25°C° 0 mm 3 mps 717 mmHg 83%
    23:00 +25°C° 0 mm 3 mps 717 mmHg 85%

    26 January, Sunday

    Time Temperature Precipitation Wind Pressure Humidity
    00:00 +25°C° 0 mm 2 mps 717 mmHg 87%
    01:00 +25°C° 0 mm 2 mps 717 mmHg 89%
    02:00 +25°C° 0 mm 2 mps 716 mmHg 89%
    03:00 +24°C° 0 mm 3 mps 716 mmHg 90%
    04:00 +24°C° 0 mm 3 mps 716 mmHg 90%
    05:00 +24°C° 0 mm 3 mps 716 mmHg 90%
    06:00 +24°C° 0 mm 3 mps 716 mmHg 90%
    07:00 +24°C° 0 mm 3 mps 716 mmHg 91%
    08:00 +26°C° 0 mm 4 mps 717 mmHg 80%
    09:00 +28°C° 0 mm 4 mps 717 mmHg 70%
    10:00 +30°C° 0 mm 5 mps 718 mmHg 60%
    11:00 +32°C° 0.1 mm 5 mps 717 mmHg 56%
    12:00 +33°C° 0.1 mm 5 mps 717 mmHg 52%
    13:00 +34°C° 0.1 mm 5 mps 717 mmHg 48%
    14:00 +33°C° 1 mm 5 mps 716 mmHg 50%
    15:00 +33°C° 1 mm 5 mps 716 mmHg 53%
    16:00 +32°C° 1 mm 5 mps 715 mmHg 55%
    17:00 +30°C° 0.3 mm 5 mps 715 mmHg 61%
    18:00 +28°C° 0.3 mm 5 mps 715 mmHg 68%
    19:00 +27°C° 0.3 mm 4 mps 716 mmHg 74%
    20:00 +26°C° 0 mm 4 mps 716 mmHg 79%
    21:00 +26°C° 0 mm 4 mps 716 mmHg 84%
    22:00 +25°C° 0 mm 3 mps 717 mmHg 89%
    23:00 +25°C° 0.1 mm 3 mps 717 mmHg 89%

    27 January, Monday

    Time Temperature Precipitation Wind Pressure Humidity
    00:00 +24°C° 0.1 mm 3 mps 717 mmHg 90%
    01:00 +24°C° 0.1 mm 2 mps 717 mmHg 91%
    02:00 +24°C° 0 mm 2 mps 716 mmHg 92%
    03:00 +24°C° 0 mm 2 mps 716 mmHg 93%
    04:00 +23°C° 0 mm 2 mps 716 mmHg 94%
    05:00 +23°C° 0 mm 2 mps 716 mmHg 94%
    06:00 +23°C° 0 mm 2 mps 716 mmHg 94%
    07:00 +23°C° 0 mm 2 mps 716 mmHg 94%
    08:00 +25°C° 0 mm 3 mps 717 mmHg 84%
    09:00 +27°C° 0 mm 3 mps 717 mmHg 75%
    10:00 +29°C° 0 mm 4 mps 717 mmHg 65%
    11:00 +30°C° 0.1 mm 4 mps 717 mmHg 60%
    12:00 +32°C° 0.1 mm 4 mps 717 mmHg 55%
    13:00 +34°C° 0.1 mm 5 mps 717 mmHg 50%
    14:00 +33°C° 0.5 mm 5 mps 716 mmHg 51%
    15:00 +33°C° 0.5 mm 5 mps 716 mmHg 52%
    16:00 +32°C° 0.5 mm 5 mps 715 mmHg 53%
    17:00 +30°C° 0.3 mm 5 mps 715 mmHg 59%
    18:00 +28°C° 0.3 mm 5 mps 715 mmHg 66%
    19:00 +27°C° 0.3 mm 4 mps 715 mmHg 72%
    20:00 +26°C° 0 mm 4 mps 716 mmHg 78%
    21:00 +26°C° 0 mm 3 mps 716 mmHg 83%
    22:00 +25°C° 0 mm 3 mps 717 mmHg 88%
    23:00 +25°C° 0.1 mm 2 mps 716 mmHg 90%
    Show more